When you browse on this site, cookies collect data to enhance your experience and personalize the content and advertising you see.
Visit our Privacy Policy to learn more. By continuing to use the site, you agree to this use of cookies and data.
  • In Czech Republic
  • List of Countries
  • For 7 days
  • Water Temperature
  • Weather Map
  • Weather Widgets
  • user-avatar
    Login

    Hourly Weather Potsdam

    Today, 21 October, Monday

    Time Temperature Precipitation Wind Pressure Humidity
    00:00 +14°C° 0 mm 2 mps 755 mmHg 82%
    01:00 +14°C° 0 mm 2 mps 755 mmHg 83%
    02:00 +14°C° 0 mm 2 mps 755 mmHg 85%
    03:00 +13°C° 0 mm 2 mps 755 mmHg 87%
    04:00 +13°C° 0 mm 2 mps 755 mmHg 89%
    05:00 +13°C° 0 mm 1 mps 755 mmHg 89%
    06:00 +13°C° 0 mm 1 mps 756 mmHg 90%
    07:00 +12°C° 0 mm 1 mps 757 mmHg 90%
    08:00 +14°C° 0 mm 1 mps 757 mmHg 84%
    09:00 +15°C° 0 mm 1 mps 757 mmHg 78%
    10:00 +18°C° 0 mm 1 mps 758 mmHg 72%
    11:00 +19°C° 0 mm 1 mps 758 mmHg 70%
    12:00 +20°C° 0 mm 1 mps 759 mmHg 68%
    13:00 +20°C° 0 mm 1 mps 759 mmHg 66%
    14:00 +20°C° 0 mm 1 mps 759 mmHg 69%
    15:00 +20°C° 0 mm 1 mps 759 mmHg 72%
    16:00 +17°C° 0 mm 0 mps 759 mmHg 76%
    17:00 +16°C° 0 mm 0 mps 760 mmHg 79%
    18:00 +18°C° 0 mm 1 mps 760 mmHg 82%
    19:00 +16°C° 0 mm 1 mps 761 mmHg 86%
    20:00 +16°C° 0 mm 1 mps 761 mmHg 87%
    21:00 +15°C° 0 mm 1 mps 761 mmHg 88%
    22:00 +15°C° 0 mm 1 mps 761 mmHg 88%
    23:00 +15°C° 0 mm 1 mps 762 mmHg 89%

    Tomorrow, 22 October, Tuesday

    Time Temperature Precipitation Wind Pressure Humidity
    00:00 +15°C° 0 mm 1 mps 762 mmHg 90%
    01:00 +14°C° 0 mm 2 mps 762 mmHg 91%
    02:00 +14°C° 0 mm 1 mps 762 mmHg 90%
    03:00 +14°C° 0 mm 1 mps 762 mmHg 90%
    04:00 +14°C° 0 mm 1 mps 762 mmHg 90%
    05:00 +13°C° 0 mm 1 mps 762 mmHg 90%
    06:00 +13°C° 0 mm 1 mps 763 mmHg 90%
    07:00 +12°C° 0 mm 1 mps 763 mmHg 91%
    08:00 +13°C° 0 mm 1 mps 763 mmHg 83%
    09:00 +15°C° 0 mm 2 mps 763 mmHg 75%
    10:00 +16°C° 0 mm 2 mps 764 mmHg 67%
    11:00 +17°C° 0 mm 2 mps 764 mmHg 65%
    12:00 +18°C° 0 mm 2 mps 764 mmHg 62%
    13:00 +18°C° 0 mm 2 mps 764 mmHg 59%
    14:00 +18°C° 0 mm 2 mps 763 mmHg 61%
    15:00 +17°C° 0 mm 2 mps 763 mmHg 64%
    16:00 +17°C° 0 mm 2 mps 763 mmHg 67%
    17:00 +16°C° 0 mm 1 mps 763 mmHg 72%
    18:00 +14°C° 0 mm 1 mps 763 mmHg 77%
    19:00 +13°C° 0 mm 1 mps 764 mmHg 82%
    20:00 +13°C° 0 mm 1 mps 764 mmHg 84%
    21:00 +12°C° 0 mm 1 mps 764 mmHg 86%
    22:00 +11°C° 0 mm 0 mps 764 mmHg 88%
    23:00 +11°C° 0 mm 1 mps 764 mmHg 89%

    Day after tomorrow, 23 October, Wednesday

    Time Temperature Precipitation Wind Pressure Humidity
    00:00 +11°C° 0 mm 1 mps 764 mmHg 90%
    01:00 +11°C° 0 mm 1 mps 764 mmHg 91%
    02:00 +11°C° 0 mm 1 mps 764 mmHg 91%
    03:00 +10°C° 0 mm 1 mps 763 mmHg 92%
    04:00 +10°C° 0 mm 1 mps 763 mmHg 92%
    05:00 +10°C° 0 mm 1 mps 763 mmHg 92%
    06:00 +10°C° 0 mm 1 mps 763 mmHg 92%
    07:00 +10°C° 0 mm 1 mps 763 mmHg 92%
    08:00 +11°C° 0 mm 1 mps 762 mmHg 86%
    09:00 +13°C° 0 mm 1 mps 762 mmHg 79%
    10:00 +14°C° 0 mm 2 mps 762 mmHg 73%
    11:00 +15°C° 0 mm 2 mps 762 mmHg 70%
    12:00 +17°C° 0 mm 2 mps 761 mmHg 67%
    13:00 +18°C° 0 mm 3 mps 761 mmHg 64%
    14:00 +17°C° 0 mm 2 mps 760 mmHg 67%
    15:00 +17°C° 0 mm 2 mps 760 mmHg 70%
    16:00 +17°C° 0 mm 2 mps 759 mmHg 73%
    17:00 +16°C° 0 mm 2 mps 759 mmHg 77%
    18:00 +14°C° 0 mm 3 mps 759 mmHg 80%
    19:00 +13°C° 0 mm 3 mps 759 mmHg 84%
    20:00 +13°C° 0 mm 3 mps 758 mmHg 86%
    21:00 +12°C° 0 mm 3 mps 758 mmHg 88%
    22:00 +13°C° 0 mm 2 mps 758 mmHg 90%
    23:00 +12°C° 0 mm 3 mps 757 mmHg 91%

    24 October, Thursday

    Time Temperature Precipitation Wind Pressure Humidity
    00:00 +12°C° 0 mm 3 mps 757 mmHg 92%
    01:00 +11°C° 0 mm 3 mps 756 mmHg 93%
    02:00 +11°C° 0 mm 3 mps 756 mmHg 93%
    03:00 +11°C° 0 mm 3 mps 755 mmHg 94%
    04:00 +11°C° 0 mm 3 mps 755 mmHg 95%
    05:00 +11°C° 0 mm 3 mps 755 mmHg 95%
    06:00 +12°C° 0 mm 2 mps 754 mmHg 96%
    07:00 +12°C° 0 mm 2 mps 754 mmHg 96%
    08:00 +13°C° 0 mm 2 mps 754 mmHg 90%
    09:00 +14°C° 0 mm 2 mps 754 mmHg 85%
    10:00 +16°C° 0 mm 2 mps 754 mmHg 79%
    11:00 +17°C° 0 mm 2 mps 754 mmHg 75%
    12:00 +18°C° 0 mm 2 mps 753 mmHg 70%
    13:00 +19°C° 0 mm 2 mps 753 mmHg 66%
    14:00 +19°C° 0 mm 2 mps 753 mmHg 69%
    15:00 +18°C° 0 mm 2 mps 753 mmHg 71%
    16:00 +19°C° 0 mm 1 mps 753 mmHg 74%
    17:00 +18°C° 0 mm 1 mps 753 mmHg 78%
    18:00 +16°C° 0 mm 1 mps 753 mmHg 82%
    19:00 +15°C° 0 mm 1 mps 754 mmHg 87%
    20:00 +14°C° 0 mm 2 mps 754 mmHg 88%
    21:00 +14°C° 0 mm 2 mps 754 mmHg 90%
    22:00 +14°C° 0 mm 2 mps 755 mmHg 91%
    23:00 +14°C° 0 mm 2 mps 755 mmHg 92%

    25 October, Friday

    Time Temperature Precipitation Wind Pressure Humidity
    00:00 +13°C° 0 mm 2 mps 756 mmHg 92%
    01:00 +13°C° 0 mm 2 mps 756 mmHg 92%
    02:00 +13°C° 0 mm 2 mps 756 mmHg 92%
    03:00 +13°C° 0 mm 2 mps 757 mmHg 91%
    04:00 +13°C° 0 mm 2 mps 757 mmHg 90%
    05:00 +13°C° 0 mm 2 mps 758 mmHg 89%
    06:00 +12°C° 0 mm 3 mps 758 mmHg 89%
    07:00 +12°C° 0 mm 3 mps 758 mmHg 88%
    08:00 +13°C° 0 mm 3 mps 759 mmHg 81%
    09:00 +14°C° 0 mm 4 mps 760 mmHg 75%
    10:00 +16°C° 0 mm 5 mps 760 mmHg 68%
    11:00 +16°C° 0 mm 5 mps 761 mmHg 65%
    12:00 +16°C° 0 mm 5 mps 761 mmHg 62%
    13:00 +17°C° 0 mm 5 mps 761 mmHg 59%
    14:00 +17°C° 0 mm 4 mps 761 mmHg 62%
    15:00 +16°C° 0 mm 3 mps 761 mmHg 64%
    16:00 +16°C° 0 mm 2 mps 761 mmHg 67%
    17:00 +15°C° 0 mm 2 mps 762 mmHg 70%
    18:00 +14°C° 0 mm 1 mps 762 mmHg 74%
    19:00 +13°C° 0 mm 1 mps 762 mmHg 78%
    20:00 +12°C° 0 mm 1 mps 762 mmHg 79%
    21:00 +12°C° 0 mm 1 mps 762 mmHg 81%
    22:00 +12°C° 0 mm 1 mps 762 mmHg 83%
    23:00 +11°C° 0 mm 1 mps 762 mmHg 84%

    26 October, Saturday

    Time Temperature Precipitation Wind Pressure Humidity
    00:00 +10°C° 0 mm 2 mps 761 mmHg 86%
    01:00 +10°C° 0 mm 2 mps 761 mmHg 87%
    02:00 +10°C° 0 mm 3 mps 761 mmHg 88%
    03:00 +10°C° 0 mm 3 mps 760 mmHg 89%
    04:00 +10°C° 0 mm 3 mps 760 mmHg 89%
    05:00 +10°C° 0 mm 3 mps 760 mmHg 88%
    06:00 +11°C° 0 mm 4 mps 759 mmHg 87%
    07:00 +11°C° 0 mm 4 mps 759 mmHg 86%
    08:00 +12°C° 0 mm 4 mps 759 mmHg 80%
    09:00 +14°C° 0 mm 5 mps 759 mmHg 73%
    10:00 +16°C° 0 mm 5 mps 759 mmHg 66%
    11:00 +16°C° 0 mm 5 mps 759 mmHg 64%
    12:00 +17°C° 0 mm 5 mps 759 mmHg 61%
    13:00 +19°C° 0 mm 4 mps 759 mmHg 59%
    14:00 +18°C° 0 mm 4 mps 759 mmHg 62%
    15:00 +17°C° 0 mm 3 mps 759 mmHg 66%
    16:00 +17°C° 0 mm 2 mps 760 mmHg 70%
    17:00 +16°C° 0 mm 2 mps 760 mmHg 75%
    18:00 +15°C° 0 mm 2 mps 760 mmHg 80%
    19:00 +14°C° 0 mm 2 mps 761 mmHg 85%
    20:00 +13°C° 0 mm 2 mps 761 mmHg 86%
    21:00 +13°C° 0 mm 2 mps 761 mmHg 86%
    22:00 +13°C° 0 mm 2 mps 762 mmHg 87%
    23:00 +13°C° 0 mm 1 mps 762 mmHg 86%

    27 October, Sunday

    Time Temperature Precipitation Wind Pressure Humidity
    00:00 +13°C° 0 mm 1 mps 762 mmHg 86%
    01:00 +12°C° 0 mm 1 mps 762 mmHg 86%
    02:00 +12°C° 0 mm 1 mps 762 mmHg 86%
    03:00 +12°C° 0 mm 1 mps 762 mmHg 85%
    04:00 +12°C° 0 mm 1 mps 762 mmHg 85%
    05:00 +12°C° 0 mm 1 mps 762 mmHg 84%
    06:00 +11°C° 0 mm 1 mps 762 mmHg 84%
    07:00 +11°C° 0 mm 1 mps 762 mmHg 84%
    08:00 +12°C° 0 mm 1 mps 762 mmHg 82%
    09:00 +12°C° 0 mm 1 mps 762 mmHg 80%
    10:00 +13°C° 0 mm 1 mps 762 mmHg 78%
    11:00 +13°C° 0 mm 1 mps 762 mmHg 77%
    12:00 +13°C° 0 mm 1 mps 762 mmHg 75%
    13:00 +13°C° 0 mm 1 mps 762 mmHg 74%
    14:00 +13°C° 0 mm 1 mps 762 mmHg 76%
    15:00 +13°C° 0 mm 1 mps 762 mmHg 77%
    16:00 +13°C° 0 mm 1 mps 761 mmHg 78%
    17:00 +13°C° 0 mm 1 mps 762 mmHg 80%
    18:00 +12°C° 0 mm 1 mps 762 mmHg 82%
    19:00 +11°C° 0 mm 1 mps 762 mmHg 84%
    20:00 +11°C° 0 mm 1 mps 762 mmHg 86%
    21:00 +9°C° 0 mm 2 mps 762 mmHg 88%
    22:00 +9°C° 0 mm 2 mps 762 mmHg 90%
    23:00 +9°C° 0 mm 2 mps 761 mmHg 91%
    Show more